This is the latest recevied weather packets stored in our database for station/object IW2GOB-3. If no packets are shown the sender has not sent any weather packets the latest 1 day(s).
| Time | Temp. | Humidity | Pressure | Rain* | Wind** | Luminosity | Snow |
|---|---|---|---|---|---|---|---|
| 1836274408 | 18.89° C | 90% | 1024.1 hPa | 0 mm | 0 m/s | - | - |
| 1836274258 | 18.89° C | 90% | 1024 hPa | 0 mm | 0 m/s | - | - |
| 1778034924 | 13.89° C | 94% | 1009.5 hPa | 1.02 mm | 0.89 m/s, 26° | - | - |
| 1778034324 | 13.89° C | 94% | 1009.6 hPa | 0.76 mm | 2.68 m/s, 79° | - | - |
| 1778033724 | 13.89° C | 94% | 1009.9 hPa | 0.51 mm | 0.89 m/s, 92° | - | - |
| 1778033124 | 13.89° C | 94% | 1010 hPa | 0.25 mm | 0.45 m/s, 88° | - | - |
| 1778032524 | 13.89° C | 94% | 1009.9 hPa | 0 mm | 0.89 m/s, 77° | - | - |
| 1778031924 | 13.89° C | 94% | 1009.9 hPa | 0 mm | 0.89 m/s, 107° | - | - |
| 1778031324 | 13.89° C | 94% | 1010.2 hPa | 0 mm | 0.45 m/s, 130° | - | - |
| 1778030724 | 13.89° C | 94% | 1010.2 hPa | 0 mm | 1.34 m/s, 121° | - | - |
| 1778030128 | 13.89° C | 94% | 1009.9 hPa | 0 mm | 2.24 m/s, 104° | - | - |
| 1778029524 | 13.89° C | 94% | 1010 hPa | 0 mm | 0.89 m/s, 94° | - | - |
| 1778028924 | 13.89° C | 93% | 1009.9 hPa | 0 mm | 0.89 m/s, 101° | - | - |
| 1778028324 | 13.89° C | 93% | 1009.8 hPa | 0 mm | 1.34 m/s, 66° | - | - |
| 1778027724 | 13.89° C | 93% | 1010.1 hPa | 0 mm | 1.34 m/s, 79° | - | - |
| 1778027124 | 13.89° C | 93% | 1010.3 hPa | 0 mm | 0.89 m/s, 72° | - | - |
| 1778026524 | 13.89° C | 93% | 1010.5 hPa | 0 mm | 0.45 m/s, 46° | - | - |
| 1778025924 | 13.89° C | 93% | 1010.6 hPa | 0 mm | 0.45 m/s, 31° | - | - |
| 1778025324 | 14.44° C | 93% | 1010.8 hPa | 0 mm | 0.45 m/s, 26° | - | - |
| 1778024724 | 14.44° C | 93% | 1011.1 hPa | 0 mm | 0.45 m/s, 89° | - | - |
| 1778024124 | 14.44° C | 93% | 1011.1 hPa | 0 mm | 0.89 m/s, 102° | - | - |
| 1778023524 | 14.44° C | 93% | 1011.2 hPa | 0 mm | 0.89 m/s, 130° | - | - |
| 1778022924 | 14.44° C | 93% | 1011.1 hPa | 0 mm | 0.89 m/s, 101° | - | - |
| 1778022324 | 14.44° C | 93% | 1011 hPa | 0 mm | 0.45 m/s, 76° | - | - |
| 1778021724 | 14.44° C | 93% | 1011.1 hPa | 0 mm | 0.89 m/s, 81° | - | - |
* Rain latest hour (hover to see other rain measurements)
** Current wind speed in m/s (hover to see current wind gust speed)